Brainerd, MN

6:22 AM CST on January 24, 2018 (GMT -0600)
Brainerd-Crow Wing County Regional

Weather History for KBRD - August, 2014

Change the Weather History Date:

Saturday, August 16, 2014

  Actual Average Record
Temperature  
Mean Temperature 71 °F -  
Max Temperature 84 °F 79 °F 98 °F (1988)
Min Temperature 60 °F 52 °F 37 °F (1976)
Cooling Degree Days 6    
Growing Degree Days 21 (Base 50)    
Moisture  
Dew Point 65 °F    
Average Humidity 88    
Maximum Humidity 100    
Minimum Humidity 54    
Precipitation  
Precipitation 0.00 in - - ()
Sea Level Pressure  
Sea Level Pressure 29.87 in    
Wind  
Wind Speed 2 mph (SSE)    
Max Wind Speed 9 mph    
Max Gust Speed -    
Visibility 5 miles    
Events Fog    
Averages and records for this station are not official NWS values.
T = Trace of Precipitation, MM = Missing Value Source: NWS Daily Summary

Daily Weather History Graph

Daily Weather History Graph

Search for Another Location

Airport or City:

Trip Planner

Search our weather history database for the weather conditions in past years. The results will help you decide how hot, cold, wet, or windy it might be!

Date:

Astronomy

Aug. 16, 2014 Rise Set
Actual Time 6:16 AM CDT 8:24 PM CDT
Civil Twilight 5:43 AM CDT 8:56 PM CDT
Nautical Twilight 5:02 AM CDT 9:37 PM CDT
Astronomical Twilight 4:17 AM CDT 10:22 PM CDT
Moon 11:41 PM CDT (8/16) 1:29 PM CDT (8/16)
Length of Visible Light 15h 13m
Length of Day
14h 07m
Waning Gibbous, 58% of the Moon is Illuminated
Aug 16
Waning Gibbous
Aug 17
Last Quarter
Aug 25
New
Sep 2
First Quarter
Sep 8
Full

Hourly Weather History & Observations

Time (CDT) Temp. Heat Index Dew Point Humidity Pressure Visibility Wind Dir Wind Speed Gust Speed Precip Events Conditions
1:53 AM 66.0 °F - 64.9 °F 96% 29.85 in 7.0 mi Calm Calm - N/A   Clear
2:53 AM 64.0 °F - 64.0 °F 100% 29.83 in 6.0 mi SSW 3.5 mph - N/A   Clear
3:06 AM 63.0 °F - 63.0 °F 100% 29.84 in 1.8 mi SSW 3.5 mph - N/A   Clear
3:12 AM 63.0 °F - 63.0 °F 100% 29.84 in 3.0 mi SW 3.5 mph - N/A   Clear
3:53 AM 63.0 °F - 63.0 °F 100% 29.83 in 0.5 mi Calm Calm - N/A Fog Fog
4:00 AM 63.0 °F - 63.0 °F 100% 29.84 in 0.2 mi Calm Calm - N/A Fog Fog
4:08 AM 63.0 °F - 63.0 °F 100% 29.84 in 0.8 mi Calm Calm - N/A   Mist
4:29 AM 64.0 °F - 63.0 °F 96% 29.84 in 0.8 mi South 3.5 mph - N/A   Clear
4:35 AM 63.0 °F - 62.1 °F 97% 29.84 in 1.0 mi South 3.5 mph - N/A   Mist
4:53 AM 61.0 °F - 61.0 °F 100% 29.83 in 0.2 mi South 3.5 mph - N/A Fog Fog
5:41 AM 62.1 °F - 62.1 °F 100% 29.86 in 0.2 mi Calm Calm - N/A Fog Fog
5:48 AM 60.8 °F - 60.8 °F 100% 29.86 in 0.2 mi Calm Calm - N/A Fog Fog
5:53 AM 61.0 °F - 61.0 °F 100% 29.85 in 0.2 mi South 3.5 mph - N/A Fog Fog
6:53 AM 63.0 °F - 63.0 °F 100% 29.86 in 0.2 mi Calm Calm - N/A Fog Fog
7:53 AM 64.9 °F - 64.9 °F 100% 29.87 in 0.2 mi South 3.5 mph - N/A Fog Fog
8:40 AM 66.0 °F - 66.0 °F 100% 29.88 in 1.0 mi Calm Calm - N/A   Overcast
8:44 AM 66.9 °F - 66.9 °F 100% 29.88 in 2.0 mi Calm Calm - N/A   Overcast
8:53 AM 66.9 °F - 66.9 °F 100% 29.87 in 4.0 mi Calm Calm - N/A   Overcast
9:26 AM 69.1 °F - 68.0 °F 96% 29.88 in 6.0 mi West 3.5 mph - N/A   Overcast
9:53 AM 72.0 °F - 68.0 °F 87% 29.88 in 8.0 mi Calm Calm - N/A   Mostly Cloudy
10:13 AM 73.9 °F - 68.0 °F 82% 29.89 in 9.0 mi Calm Calm - N/A   Partly Cloudy
10:53 AM 75.9 °F - 69.1 °F 79% 29.88 in 5.0 mi Calm Calm - N/A   Haze
11:53 AM 78.1 °F - 66.9 °F 68% 29.88 in 10.0 mi Calm Calm - N/A   Mostly Cloudy
12:53 PM 78.1 °F - 66.9 °F 68% 29.87 in 10.0 mi Calm Calm - N/A   Partly Cloudy
1:53 PM 81.0 °F 83.3 °F 66.9 °F 62% 29.86 in 10.0 mi WNW 4.6 mph - N/A   Clear
2:53 PM 82.9 °F 84.6 °F 64.9 °F 54% 29.86 in 10.0 mi Variable 6.9 mph - N/A   Clear
3:53 PM 82.0 °F 84.5 °F 66.9 °F 60% 29.85 in 10.0 mi NNE 8.1 mph - N/A   Scattered Clouds
4:53 PM 78.1 °F - 68.0 °F 71% 29.87 in 10.0 mi East 5.8 mph - N/A   Overcast
5:53 PM 75.9 °F - 69.1 °F 79% 29.88 in 10.0 mi ENE 9.2 mph - N/A   Overcast
6:53 PM 75.0 °F - 69.1 °F 82% 29.89 in 9.0 mi East 8.1 mph - N/A   Overcast
7:53 PM 73.0 °F - 66.9 °F 81% 29.90 in 10.0 mi East 6.9 mph - N/A   Mostly Cloudy
8:53 PM 71.1 °F - 64.9 °F 81% 29.93 in 10.0 mi Variable 5.8 mph - N/A   Overcast
9:53 PM 69.1 °F - 63.0 °F 81% 29.94 in 10.0 mi East 5.8 mph - N/A   Mostly Cloudy
10:53 PM 68.0 °F - 64.0 °F 87% 29.94 in 10.0 mi Calm Calm - N/A   Overcast
11:53 PM 68.0 °F - 64.0 °F 87% 29.95 in 10.0 mi ENE 5.8 mph - N/A   Overcast